Regional Weather Roundup
Issued by NWS Cleveland, OH

Home | Current Version | Previous Version | Graphics & Text | Print | Product List | Glossary On
Versions: 1 2 3 4 5 6 7 8 9 10 11 12 13 14 15 16 17 18 19 20 21 22 23 24 25 26 27 28 29 30 31 32 33 34 35 36 37 38 39 40 41 42 43 44 45 46 47 48 49 50
000
ASUS41 KCLE 270010
RWRCLE
OHIO REGIONAL WEATHER ROUNDUP
NATIONAL WEATHER SERVICE CLEVELAND, OH
800 PM EDT THU MAR 26 2015

NOTE: "FAIR" INDICATES FEW OR NO CLOUDS BELOW 12,000 FEET WITH NO
SIGNIFICANT WEATHER AND/OR OBSTRUCTIONS TO VISIBILITY.

OHZ001>008-015>018-024>027-034-035-043-044-270100-
   NORTHWEST OHIO

CITY           SKY/WX    TMP DP  RH WIND       PRES   REMARKS
DEFIANCE       CLOUDY    38  25  59 NW15      29.94R
FINDLAY        CLOUDY    42  29  59 NW10      29.90R
TOLEDO EXPRESS CLOUDY    39  25  57 NW12G20   29.91R
TOLEDO EXEC    CLOUDY    41  25  53 NW15      29.91R
LIMA           CLOUDY    42  31  64 NW15G23   29.91R
$$

OHZ009>014-019>023-028>033-038-089-270100-
   NORTHEAST OHIO

CITY           SKY/WX    TMP DP  RH WIND       PRES   REMARKS
CLE-HOPKINS    CLOUDY    37  34  89 SW3       29.90R
CLE-LAKEFRONT  CLOUDY    36  33  89 CALM      29.87S FOG
CUY CO. ARPT   CLOUDY    37  36  93 W7        29.88R FOG
LORAIN-ELYRIA  CLOUDY    38  33  82 W5        29.89R
ASHTABULA      CLOUDY    35  33  92 W7        29.87R WCI  29
AKRON-CANTON   CLOUDY    37  33  85 NW8       29.87R
WOOSTER        CLOUDY    37  34  89 NW5       29.88S
MANSFIELD      CLOUDY    38  34  85 W5        29.88R
YOUNGSTOWN     CLOUDY    36  34  92 NW5       29.86R
$$

OHZ042-051>053-060>062-070>072-077>081-270100-
  SOUTHWEST OHIO

CITY           SKY/WX    TMP DP  RH WIND       PRES   REMARKS
CINC-COVINGTON CLOUDY    42  35  76 NW12      29.93R
CINC-LUNKEN    CLOUDY    42  35  76 N10       29.95R
HAMILTON       CLOUDY    42  34  73 NW9       29.95R
DAYTON         CLOUDY    41  33  73 NW8       29.94R
WRIGHT-PAT AFB MOCLDY    41  33  75 NW8       29.92R
DAYTON GENERAL CLOUDY    41  33  73 NW6       29.93R
WILMINGTON     CLOUDY    40  34  79 N8        29.91R
$$

OHZ036-037-039>041-045>050-054>059-063>069-073>076-082>088-270100-
  CENTRAL AND SOUTHEAST OHIO

CITY           SKY/WX    TMP DP  RH WIND       PRES   REMARKS
COLUMBUS       CLOUDY    40  34  79 NW7       29.90S
OSU AIRPORT    CLOUDY    40  33  76 NW9       29.91R
BOLTON FIELD   CLOUDY   N/A N/A N/A NW5       29.91R
RICKENBACK AFB CLOUDY    40  35  80 NW5       29.91R
NEWARK         CLOUDY    41  34  76 NW5       29.89R
MARION         CLOUDY    39  32  76 NW5       29.90R
LANCASTER      CLOUDY    41  35  79 NW7       29.91R
ZANESVILLE     CLOUDY    41  35  79 NW13      29.89R
NEW PHILLY     CLOUDY    42  36  79 NW7       29.89R
$$


USA.gov is the U.S. government's official web portal to all federal, state and local government web resources and services.